Regional Weather Roundup
Issued by NWS Charleston, SC

Current Version | Previous Version | Graphics & Text | Print | Product List | Glossary On
Versions: 1 2 3 4 5 6 7 8 9 10 11 12 13 14 15 16 17 18 19 20 21 22 23 24 25 26 27 28 29 30 31 32 33 34 35 36 37 38 39 40 41 42 43 44 45 46 47 48 49 50
000
ASUS42 KCHS 230010
RWRCHS
REGIONAL WEATHER ROUNDUP
NATIONAL WEATHER SERVICE CHARLESTON SC
800 PM EDT WED OCT 22 2014

NOTE: "FAIR" INDICATES FEW OR NO CLOUDS BELOW 12,000 FEET WITH NO
SIGNIFICANT WEATHER AND/OR OBSTRUCTIONS TO VISIBILITY.

NOT ALL STATIONS ARE QUALITY CONTROLLED BY THE NATIONAL
WEATHER SERVICE. USE DATA WITH CAUTION...ESPECIALLY
DEWPOINT OBSERVATIONS.

SCZ027-030-031-034>040-042>050-230100-
...SOUTH CAROLINA...

CITY           SKY/WX    TMP DP  RH WIND       PRES   REMARKS
N CHARLESTON   CLEAR     59  43  55 NW5       30.03R
6HR MIN TEMP:  58; 6HR MAX TEMP:  71;

WATERFRONT PRK   N/A     63 N/A N/A NW5         N/A
FORT JOHNSON   NOT AVBL
JOHNS ISLAND   CLEAR     55  48  76 CALM      30.04R
PINOPOLIS      NOT AVBL
MONCKS CORNER  FAIR      54  52  94 CALM      30.04R
SUMMERVILLE    FAIR      54  50  87 CALM      30.05R
BEAUFORT MCAS  CLEAR     56  49  77 CALM      30.05R
6HR MIN TEMP:  56; 6HR MAX TEMP:  71;

BEAUFORT ARPT  FAIR      57  50  77 NW3       30.04R
HILTON HEAD IS CLEAR    N/A N/A N/A CALM      30.05R
GEORGETOWN     NOT AVBL
WALTERBORO     CLEAR     54  46  76 CALM      30.05R
ORANGEBURG     CLEAR     55  44  66 CALM      30.05R
6HR MIN TEMP:  55; 6HR MAX TEMP:  69;

BARNWELL       FAIR      54  46  76 NE3       30.06R
AIKEN          FAIR      55  45  67 CALM      30.09R
MANNING        FAIR      54  46  76 CALM      30.03R
KINGSTREE      NOT AVBL
COLUMBIA       CLEAR     61  44  53 N3        30.05R
6HR MIN TEMP:  58; 6HR MAX TEMP:  70;

SUMTER         CLEAR     58  45  62 NW6       30.03R
6HR MIN TEMP:  58; 6HR MAX TEMP:  68; 6HR PCP: TRACE;

FLORENCE       CLEAR     56  44  64 NW6       30.02R
6HR MIN TEMP:  56; 6HR MAX TEMP:  70;

MYRTLE BEACH   CLEAR     59  45  58 NW6       30.01R
N MYRTLE BEACH CLEAR     58  49  72 W3        29.99R
6HR MIN TEMP:  58; 6HR MAX TEMP:  69;


$$

GAZ063-065-086>088-099>101-113>116-118-119-134-136>141-150-230100-
...GEORGIA...

CITY           SKY/WX    TMP DP  RH WIND       PRES   REMARKS
SAVANNAH ARPT  CLEAR     58  49  72 CALM      30.05R
6HR MIN TEMP:  58; 6HR MAX TEMP:  73;

HUNTER AAF     CLEAR     58  46  65 NW3       30.03R
6HR MIN TEMP:  58; 6HR MAX TEMP:  71;

FORT STEWART   CLEAR     55  48  78 CALM      30.04R
6HR MIN TEMP:  55; 6HR MAX TEMP:  71;

STATESBORO     NOT AVBL
SYLVANIA       CLEAR     59  54  84 CALM      30.06R
CLAXTON        FAIR      55  52  88 CALM      30.05R
THOMSON        CLEAR     54  54  99 CALM      30.11R
AUGUSTA-BUSH   CLEAR     52  42  69 CALM      30.06R
6HR MIN TEMP:  52; 6HR MAX TEMP:  71;

AUGUSTA-DANIEL CLEAR     63  42  46 N5        30.06R
SWAINSBORO     FAIR      59  45  58 MISG      30.06S
VIDALIA        CLEAR     57  48  72 CALM      30.05R
ALMA           CLEAR     53  48  83 CALM      30.04R
6HR MIN TEMP:  53; 6HR MAX TEMP:  73;

WAYCROSS       CLEAR     59  53  78 NE3       30.04R
JESUP          FAIR      57  52  82 CALM      30.05R
BRUNSWICK      CLEAR     55  50  82 CALM      30.05R
SAINT SIMONS   CLEAR     62  47  57 CALM      30.04R
6HR MIN TEMP:  62; 6HR MAX TEMP:  71;


$$

SCZ027-028-034-036>038-045-046-048>050-GAZ119-141-230100-
...LAKE AND SUPPLEMENTAL COASTAL OBSERVATIONS...

STATION/POSITION TIME  TEMP    WIND        PRES    WAVE   SWELL
                       AIR SEA DIR/SP/G            HT/PER HT/PER/DIR
                 (UTC) (F)     (DEG/KT/KT) (MB)    (FT/S) (FT/S/D)
UPR LAKE MARION  NOT AVBL
WINYAH BAY       2300   62     270/  1     1015.0S
LAKE MURRAY      2300   62     300/  3/  3 1016.9R
ACE BASIN NERRS  2300   61        CALM     1016.0S
FORT PULASKI     0000   65     320/  5/  6 1017.5R
SAPELO ISLAND    NOT AVBL

$$

ANZ835-935-AMZ111-154-330-350-352-354-374-450-454-472-230100-
...C-MAN AND BUOY OBSERVATIONS...

STATION/POSITION TIME  TEMP    WIND        PRES    WAVE   SWELL
                       AIR SEA DIR/SP/G            HT/PER HT/PER/DIR
                 (UTC) (F)     (DEG/KT/KT) (MB)    (FT/S) (FT/S/D)
FOLLY BEACH CMAN 2300   63     340/  4/  6 1017.0R
BUOY 41004       0000   67 78  340/ 12/ 16 1016.0R   3/ 6   2/ 6
BUOY 41008       0000   67 76  360/ 10/ 14 1016.8S   2/ 5   2/ 50/ 5
5E ST. MARYS GA  0000      77                N/A     3/ 5
FRYING PAN BUOY  0000   66 75  330/ 14/ 19 1015.6R   3/ 4   2/110/11
BUOY 41025       0000   61     310/ 27/ 31 1010.9R   6/ 5   2/120/10
CAPE LOOKOUT NC  2300   61     330/ 10/ 12 1013.3R
BUOY 41002       NOT AVBL
BUOY 41010       0000   76 80  360/ 14/ 16 1014.4R   3/ 5   2/ 60/10
BUOY 41012       NOT AVBL
ST AUGUSTINE FL  0000   69      20/ 16/ 19 1016.9R
CAPERS NEARSHORE NOT AVBL
FRIPP NEARSHORE  NOT AVBL


$$



USA.gov is the U.S. government's official web portal to all federal, state and local government web resources and services.